Showing default

GEESAT 2-07, 58911

Orbit data source: Space-Track

GEESAT 2-07, 58911 is a payload satellite owned by GeeSpace (CN) in LEO that was launched on Fri, 02 Feb 2024 UTC via a CHANG ZHENG 2C launch vehicle from the Xichang Space Center, China (XSC). Payload-class satellites include a variety of spacecraft equipped with specific instruments for various scientific and technological missions. These include communications satellites like Starlink; space stations such as the ISS; scientific satellites like the Hubble; Earth observation satellites from companies like Planet Labs, Umbra, and HawkEye 360; GPS; miniature CubeSats for education and research; and military/defense satellites.

Loading next visibility...
Identifier
58911, 2024-023G
Orbit
LEO
Country
Flag of CNCN / PRC
Related business
Manufacturer
GWCG
Mission
Operational Commercial Navigation
Bus & Motor
GPS100, Unknown motor
Mass
130 kg wet, 130 kg dry
Launch date (UTC)
2024-02-02 (2 years ago)
Launch vehicle
CHANG ZHENG 2C
Launch site
Xichang Space Center, China (XSC)
Object type
Payload
Rocket body
Debris
Shape & HBR
Box + 2 Pan, 1.0 m
Radar Cross Section
0.833 m², Medium (>0.1 m² and < 1m²)

Expand to show TLE details & history
Last TLE update: 7 hours ago

TLE from 7 hours ago
0 GEESAT 2-07
1 58911U 24023G   25304.27705658  .00004195  00000-0  45505-3 0  9990
2 58911  50.0061 334.9235 0009624 251.2734 108.7163 14.89938056 94936
Epoch: 2025-10-31T06:38Z
TLE epoch observation values (Epoch: 2025-10-31T06:38:57.688Z)
Latitude
-0.00001°
Longitude
-164.64068°
Altitude
600.835 km
Speed
7.559 km/s
True Right ascension
22h 19m 41s
True Declination
0° 00' 00"
Sunlit
Object was in full shadow at epoch
Visualization orbit readout
Latitude
Unknown
Longitude
Unknown
Altitude
Unknown
Speed
Unknown
Apparent Right ascension
Unknown
Apparent Declination
Unknown
Sunlit
N/A
Visualization observer readout
Local Sidereal Time
09:35:00
Azimuth
Unknown
Elevation
Unknown
Doppler factor
Unknown
Orbital elements
Apogee altitude
605.603 km
Perigee altitude
592.174 km
Semi-major axis
6,977.025 km
Eccentricity
0.00096
Inclination
50.0061°
RAAN
334.9235°
Arg. of periapsis
251.2734°
True anomaly
108.82071°
Mean anomaly
108.7163°
Eccentric anomaly
108.76851°
Mean motion
3.72424 °/min
Orbital period
96.66 mins
BSTAR
0.00045505
Loading maneuver chart data...
Computing Atmospheric mass density...
Loading historical data...
Loading historical data...
Loading historical data...
Loading historical data...
Loading historical data...
Loading historical data...
Loading historical data...

Documentation

Showing up to 5 results
|